Hourly Weather Korçe

Today, 30 September, Wednesday

Time Temperature Precipitation Wind Pressure Humidity
00:00 +8°C° 0 mm 1 mps 665 mmHg 94%
01:00 +8°C° 0 mm 1 mps 665 mmHg 93%
02:00 +8°C° 0 mm 1 mps 665 mmHg 93%
03:00 +8°C° 0 mm 1 mps 665 mmHg 93%
04:00 +7°C° 0 mm 1 mps 664 mmHg 94%
05:00 +8°C° 0 mm 1 mps 664 mmHg 91%
06:00 +9°C° 0 mm 1 mps 665 mmHg 88%
07:00 +10°C° 0 mm 1 mps 665 mmHg 86%
08:00 +10°C° 0 mm 2 mps 665 mmHg 77%
09:00 +13°C° 0 mm 2 mps 666 mmHg 69%
10:00 +15°C° 0 mm 2 mps 666 mmHg 60%
11:00 +14°C° 0 mm 3 mps 666 mmHg 58%
12:00 +16°C° 0 mm 3 mps 665 mmHg 55%
13:00 +16°C° 0 mm 3 mps 665 mmHg 53%
14:00 +16°C° 0 mm 3 mps 665 mmHg 56%
15:00 +14°C° 0 mm 3 mps 664 mmHg 60%
16:00 +13°C° 0 mm 3 mps 664 mmHg 63%
17:00 +13°C° 0 mm 2 mps 664 mmHg 71%
18:00 +12°C° 0 mm 2 mps 663 mmHg 79%
19:00 +10°C° 0 mm 1 mps 663 mmHg 87%
20:00 +10°C° 0 mm 1 mps 663 mmHg 88%
21:00 +9°C° 0 mm 1 mps 663 mmHg 90%
22:00 +9°C° 0 mm 1 mps 663 mmHg 91%
23:00 +9°C° 0 mm 1 mps 663 mmHg 90%

Tomorrow, 1 October, Thursday

Time Temperature Precipitation Wind Pressure Humidity
00:00 +8°C° 0 mm 1 mps 662 mmHg 89%
01:00 +8°C° 0 mm 1 mps 662 mmHg 89%
02:00 +8°C° 0 mm 1 mps 662 mmHg 86%
03:00 +8°C° 0 mm 1 mps 662 mmHg 84%
04:00 +7°C° 0 mm 1 mps 662 mmHg 82%
05:00 +8°C° 0 mm 1 mps 662 mmHg 77%
06:00 +9°C° 0 mm 1 mps 662 mmHg 73%
07:00 +10°C° 0 mm 1 mps 662 mmHg 68%
08:00 +12°C° 0 mm 1 mps 663 mmHg 61%
09:00 +14°C° 0 mm 1 mps 663 mmHg 53%
10:00 +16°C° 0 mm 2 mps 664 mmHg 45%
11:00 +16°C° 0 mm 2 mps 664 mmHg 44%
12:00 +17°C° 0 mm 3 mps 664 mmHg 42%
13:00 +17°C° 0 mm 3 mps 664 mmHg 41%
14:00 +17°C° 0 mm 3 mps 663 mmHg 44%
15:00 +16°C° 0 mm 3 mps 663 mmHg 47%
16:00 +16°C° 0 mm 3 mps 663 mmHg 50%
17:00 +14°C° 0 mm 2 mps 663 mmHg 58%
18:00 +12°C° 0 mm 1 mps 662 mmHg 66%
19:00 +11°C° 0 mm 1 mps 662 mmHg 74%
20:00 +10°C° 0 mm 1 mps 662 mmHg 75%
21:00 +10°C° 0 mm 1 mps 663 mmHg 77%
22:00 +9°C° 0 mm 0 mps 663 mmHg 79%
23:00 +9°C° 0 mm 1 mps 663 mmHg 79%

Day after tomorrow, 2 October, Friday

Time Temperature Precipitation Wind Pressure Humidity
00:00 +9°C° 0 mm 1 mps 663 mmHg 79%
01:00 +9°C° 0 mm 1 mps 662 mmHg 79%
02:00 +9°C° 0 mm 1 mps 662 mmHg 79%
03:00 +9°C° 0 mm 1 mps 662 mmHg 79%
04:00 +9°C° 0 mm 1 mps 662 mmHg 78%
05:00 +10°C° 0 mm 1 mps 663 mmHg 75%
06:00 +11°C° 0 mm 1 mps 663 mmHg 71%
07:00 +11°C° 0 mm 1 mps 664 mmHg 68%
08:00 +14°C° 0 mm 1 mps 664 mmHg 60%
09:00 +16°C° 0 mm 2 mps 665 mmHg 52%
10:00 +18°C° 0 mm 2 mps 666 mmHg 45%
11:00 +19°C° 0 mm 2 mps 666 mmHg 43%
12:00 +19°C° 0 mm 2 mps 666 mmHg 41%
13:00 +20°C° 0 mm 2 mps 666 mmHg 40%
14:00 +20°C° 0 mm 2 mps 666 mmHg 43%
15:00 +19°C° 0 mm 2 mps 666 mmHg 45%
16:00 +19°C° 0 mm 2 mps 666 mmHg 48%
17:00 +17°C° 0 mm 2 mps 665 mmHg 57%
18:00 +15°C° 0 mm 2 mps 665 mmHg 67%
19:00 +13°C° 0 mm 1 mps 665 mmHg 76%
20:00 +13°C° 0 mm 1 mps 665 mmHg 79%
21:00 +13°C° 0 mm 2 mps 665 mmHg 82%
22:00 +12°C° 0 mm 2 mps 665 mmHg 85%
23:00 +12°C° 0 mm 2 mps 665 mmHg 86%

3 October, Saturday

Time Temperature Precipitation Wind Pressure Humidity
00:00 +12°C° 0 mm 2 mps 665 mmHg 86%
01:00 +12°C° 0 mm 2 mps 665 mmHg 87%
02:00 +10°C° 0 mm 2 mps 665 mmHg 86%
03:00 +10°C° 0 mm 2 mps 665 mmHg 84%
04:00 +10°C° 0 mm 2 mps 665 mmHg 83%
05:00 +12°C° 0 mm 2 mps 665 mmHg 79%
06:00 +13°C° 0 mm 2 mps 666 mmHg 74%
07:00 +14°C° 0 mm 2 mps 666 mmHg 70%
08:00 +16°C° 0 mm 2 mps 667 mmHg 62%
09:00 +19°C° 0 mm 2 mps 667 mmHg 53%
10:00 +21°C° 0 mm 3 mps 668 mmHg 45%
11:00 +22°C° 0 mm 3 mps 668 mmHg 43%
12:00 +24°C° 0 mm 3 mps 668 mmHg 41%
13:00 +25°C° 0 mm 3 mps 668 mmHg 38%
14:00 +25°C° 0 mm 3 mps 668 mmHg 41%
15:00 +24°C° 0 mm 3 mps 668 mmHg 43%
16:00 +24°C° 0 mm 2 mps 667 mmHg 45%
17:00 +21°C° 0 mm 2 mps 667 mmHg 51%
18:00 +19°C° 0 mm 2 mps 667 mmHg 58%
19:00 +17°C° 0 mm 3 mps 667 mmHg 64%
20:00 +16°C° 0 mm 2 mps 666 mmHg 64%
21:00 +16°C° 0 mm 2 mps 666 mmHg 64%
22:00 +16°C° 0 mm 2 mps 666 mmHg 65%
23:00 +16°C° 0 mm 2 mps 666 mmHg 62%

4 October, Sunday

Time Temperature Precipitation Wind Pressure Humidity
00:00 +16°C° 0 mm 2 mps 666 mmHg 59%
01:00 +16°C° 0 mm 2 mps 666 mmHg 56%
02:00 +17°C° 0 mm 3 mps 666 mmHg 54%
03:00 +17°C° 0 mm 3 mps 666 mmHg 51%
04:00 +17°C° 0 mm 3 mps 666 mmHg 49%
05:00 +18°C° 0 mm 3 mps 666 mmHg 49%
06:00 +18°C° 0 mm 3 mps 666 mmHg 48%
07:00 +19°C° 0 mm 3 mps 667 mmHg 48%
08:00 +21°C° 0 mm 4 mps 667 mmHg 44%
09:00 +23°C° 0 mm 5 mps 667 mmHg 40%
10:00 +26°C° 0 mm 5 mps 668 mmHg 35%
11:00 +27°C° 0 mm 5 mps 668 mmHg 33%
12:00 +28°C° 0 mm 5 mps 668 mmHg 31%
13:00 +29°C° 0 mm 5 mps 668 mmHg 29%
14:00 +27°C° 0 mm 5 mps 668 mmHg 34%
15:00 +26°C° 0 mm 4 mps 667 mmHg 39%
16:00 +25°C° 0 mm 3 mps 667 mmHg 44%
17:00 +22°C° 0 mm 3 mps 667 mmHg 48%
18:00 +21°C° 0 mm 3 mps 667 mmHg 52%
19:00 +19°C° 0 mm 3 mps 666 mmHg 56%
20:00 +19°C° 0 mm 3 mps 666 mmHg 58%
21:00 +18°C° 0 mm 3 mps 666 mmHg 61%
22:00 +17°C° 0 mm 3 mps 666 mmHg 63%
23:00 +17°C° 0 mm 3 mps 666 mmHg 63%

5 October, Monday

Time Temperature Precipitation Wind Pressure Humidity
00:00 +17°C° 0 mm 2 mps 666 mmHg 62%
01:00 +17°C° 0 mm 2 mps 666 mmHg 62%
02:00 +17°C° 0 mm 2 mps 666 mmHg 62%
03:00 +17°C° 0 mm 2 mps 665 mmHg 63%
04:00 +16°C° 0 mm 2 mps 665 mmHg 63%
05:00 +17°C° 0 mm 2 mps 665 mmHg 61%
06:00 +18°C° 0 mm 3 mps 666 mmHg 60%
07:00 +18°C° 0 mm 3 mps 666 mmHg 59%
08:00 +20°C° 0 mm 4 mps 666 mmHg 52%
09:00 +23°C° 0 mm 5 mps 667 mmHg 46%
10:00 +26°C° 0 mm 6 mps 667 mmHg 39%
11:00 +27°C° 0 mm 6 mps 667 mmHg 36%
12:00 +28°C° 0 mm 6 mps 667 mmHg 32%
13:00 +29°C° 0 mm 6 mps 667 mmHg 29%
14:00 +28°C° 0 mm 6 mps 667 mmHg 33%
15:00 +26°C° 0 mm 5 mps 666 mmHg 37%
16:00 +25°C° 0 mm 4 mps 666 mmHg 42%
17:00 +23°C° 0.1 mm 4 mps 666 mmHg 48%
18:00 +21°C° 0.1 mm 4 mps 666 mmHg 54%
19:00 +20°C° 0.1 mm 4 mps 666 mmHg 59%
20:00 +19°C° 0.1 mm 4 mps 666 mmHg 61%
21:00 +19°C° 0.1 mm 4 mps 666 mmHg 62%
22:00 +19°C° 0.1 mm 4 mps 666 mmHg 63%
23:00 +18°C° 0.1 mm 3 mps 666 mmHg 66%
Show more

We Need Your Consent

Meteoprog and our Service Providers may store and access personal data such as cookies, device identifiers or other similar technologies on your device and process such data to personalise content and ads, as well as provide social media features and to analyse the traffic.

  • Store and/or access information on your device

    Cookies, device identifiers or other information can be stored or accessed on your device for the purposes indicated above.

  • Personalised ads and content, ad and content measurement, audience insights, and products development

    Ads and content can be personalised based on a profile. More data can be added to better personalise ads and content. Ad and content performance can be measured. Insights about the audience who saw the ads and content can be derived. Such data can be used to develop or improve user’s experience, systems and software.

By clicking ‘I Agree’ you will allow the use of indicated cookies, device identifiers, web beacons or other similar technologies. Your settings can be changed in the browser on your device.

For certain purposes, legitimate interests may be relied on, rather than consent. You can read more about this in our Privacy and Cookie Policy.